Regional Weather Roundup
Issued by NWS

Home | Current Version | Previous Version | Graphics & Text | Print | Product List | Glossary On
Versions: 1 2 3 4 5 6 7 8 9 10 11 12 13 14 15 16 17 18 19 20 21 22 23 24 25 26 27 28 29 30 31 32 33 34 35 36 37 38 39 40 41 42 43 44 45 46 47 48 49 50
000
ASUS43 KIND 300259
RWRIN

WEATHER ROUNDUP FOR INDIANA
NATIONAL WEATHER SERVICE INDIANAPOLIS IN
1100 PM EDT MON JUN 29 2015

NOTE: "FAIR" INDICATES FEW OR NO CLOUDS BELOW 12,000 FEET WITH NO
SIGNIFICANT WEATHER AND/OR OBSTRUCTIONS TO VISIBILITY.

* - STATION DOES NOT REPORT WEATHER SUCH AS PRECIPITATION OR FOG.

+ - STATION NOT QUALITY CONTROLLED BY THE NATIONAL WEATHER SERVICE.
    USE DATA WITH CAUTION...ESPECIALLY DEWPOINT AND RELATIVE
    HUMIDITY OBSERVATIONS.

INZ001>003-010>013-019-020-300400-
NORTHWEST INDIANA

CITY           SKY/WX    TMP DP  RH WIND       PRES   REMARKS
GARY /AIRPORT/ PTCLDY    66  66 100 CALM      29.81R FOG
MONTICELLO +   PTCLDY    65  65 100 SE3       29.82R
RENSSELAER +   CLEAR     64  64 100 CALM      29.83R FOG

$$

LMZ046-743>745-300400-
SOUTHERN LAKE MICHIGAN

STATION/POSITION TIME  TEMP    WIND        PRES    WAVE
                       AIR SEA DIR/SP/G            HT
                 (UTC) (F)     (DEG/KT/KT) (MB)    (FT)
BURNS HARBOR     0200   69     180/  5/  9 1009.8S
MICHIGAN CITY    0200   68     100/  7/  8   N/A
5NW MICH CITY    0200   67 66  160/  8/ 10   N/A     0

$$

INZ004-005-014>016-021>024-300400-
NORTH CENTRAL INDIANA

CITY           SKY/WX    TMP DP  RH WIND       PRES   REMARKS
GOSHEN         CLEAR     60  58  92 E3        29.83S
SOUTH BEND     PTCLDY    64  59  83 SE5       29.83S

$$

INZ006>009-017-018-025>027-300400-
NORTHEAST INDIANA

CITY           SKY/WX    TMP DP  RH WIND       PRES   REMARKS
ANGOLA *+      CLOUDY    63  52  67 CALM      29.84S
FORT WAYNE     MOCLDY    62  60  93 NE5       29.84R

$$

INZ028-029-035-036-043>045-051>053-300400-
WEST CENTRAL INDIANA

CITY           SKY/WX    TMP DP  RH WIND       PRES   REMARKS
CRAWFORDSVL +  MOCLDY    63  62  96 CALM      29.85R
GREENCASTLE +  MOCLDY    64  61  88 CALM      29.85R
LAFAYETTE      PTCLDY    65  64  97 W3        29.83R FOG
TERRE HAUTE    CLEAR     71  65  81 W7        29.84R

$$

INZ030>032-037>040-046>048-054>057-064-065-300400-
CENTRAL INDIANA

CITY           SKY/WX    TMP DP  RH WIND       PRES   REMARKS
INDIANAPOLIS   MOCLDY    68  62  81 W7        29.83R
-EAGLE CREEK   MOCLDY    68  65  90 SW3       29.83R
KOKOMO *+      MOCLDY    64  61  88 E5        29.84R
MT COMFORT *+  PTCLDY    64 N/A N/A CALM      29.84R
SHELBYVILLE    PTCLDY    70  66  87 SW6       29.82R

$$

INZ033-034-041-042-049-050-058-059-300400-
EAST CENTRAL INDIANA

CITY           SKY/WX    TMP DP  RH WIND       PRES   REMARKS
MUNCIE         MOCLDY    66  62  87 NE3       29.84R

$$

INZ060-061-067>069-081>083-085>088-300400-
SOUTHWEST INDIANA

CITY           SKY/WX    TMP DP  RH WIND       PRES   REMARKS
EVANSVILLE     CLEAR     73  64  73 W3        29.87R
HUNTINGBURG *+ CLEAR     70  63  78 W6        29.87R

$$

INZ062-063-066-070>080-084-089>092-300400-
SOUTH CENTRAL AND SOUTHEAST INDIANA

CITY           SKY/WX    TMP DP  RH WIND       PRES   REMARKS
BLOOMINGTON    PTCLDY    69  65  86 W7        29.84R
MADISON *+     MOCLDY    72  63  73 SW6       29.88R
SEYMOUR +      MOCLDY    72  66  83 CALM      29.84R

$$



USA.gov is the U.S. government's official web portal to all federal, state and local government web resources and services.